Location: *
(24.1434°N, 56.8729°E)
Time: 22:13:12
(UTC+00:00)

Centaur AC-42 - Pass Details

Date: 09 April 2020
Orbit: 643 x 36244 km, 20.8° (Epoch: 22 May)

Event Time Altitude Azimuth Distance (km) Brightness Sun altitude
Rises 16:33:59 0° 269° (W) 3,579 6.4 -27.5°
Reaches altitude 10° 16:36:41 10° 263° (W) 2,185 5.1 -28.1°
Enters shadow 16:39:15 35° 239° (WSW) 1,024 2.8 -28.6°
